Location: Rioux
(40.7500°S, 175.7500°E)
Time: 16:27:38
(UTC+00:00)

Daily predictions for brighter satellites

Satellite Brightness Start Highest point End
(mag) Time Altitude Azimuth Time Altitude Azimuth Time Altitude Azimuth
USA 59 Rocket 3.6 15:15:11 21° SSE 15:15:11 21° SSE 15:21:32 10° ESE
ATLAS 5 CENTAUR R/B 4.3 16:09:24 54° NNE 16:09:24 54° NNE 16:23:45 10° NNE
Cosmos 2369 Rocket 4.0 16:09:35 28° ESE 16:09:35 28° ESE 16:13:35 10° ENE
SL-16 R/B 4.5 16:26:28 15° SSE 16:26:28 15° SSE 16:27:19 10° SSE
Cosmos 1943 4.4 16:35:56 20° NNE 16:39:16 40° ENE 16:44:34 10° SE
ATLAS 3B R/B 4.2 16:49:09 19° N 16:49:09 19° N 16:51:01 10° N
USA 229 DEB 3.4 16:51:29 77° NE 16:51:29 77° NE 16:57:02 10° NNE
USA 229 3.4 16:51:35 78° NE 16:51:35 78° NE 16:57:09 10° NE
Cosmos 2061 Rocket 3.9 17:03:46 69° SW 17:04:31 79° W 17:10:58 10° N
USA 59 Rocket 2.7 17:01:45 19° SSW 17:08:24 41° SE 17:15:39 10° ENE
PSLV R/B 4.1 17:06:57 10° NNE 17:11:10 57° ESE 17:11:19 56° ESE
DMSP B5D2-2 4.0 17:09:08 10° S 17:18:03 21° NNW 17:19:42 10° NNW
SL-19 R/B 4.4 17:08:39 10° N 17:14:57 66° WNW 17:15:38 61° WSW
OAO 3 Rocket 4.0 17:16:05 42° N 17:16:05 42° N 17:20:39 10° ENE
USA 215 3.5 17:11:15 10° NNE 17:17:28 46° NW 17:17:48 46° WNW
SL-8 R/B 4.3 17:22:42 46° S 17:23:01 47° SSE 17:27:43 10° E
Meteor 1-20 Rocket 4.1 17:23:48 35° SSW 17:26:19 81° W 17:32:02 10° N
Lacrosse 4 Rocket 3.6 17:29:45 14° S 17:32:09 21° SE 17:35:19 10° ENE
Tiangong -0.4 17:34:42 28° NNE 17:34:49 28° NNE 17:37:38 10° E
Cosmos 2233 Rocket 4.1 17:34:01 44° WSW 17:35:04 49° W 17:41:00 10° NNW
Spot 4 Rocket 3.9 17:30:01 10° N 17:35:08 73° WNW 17:37:18 36° SSW
H-2A R/B 4.0 17:32:45 19° NW 17:35:20 24° NNW 17:42:38 10° NE
Cosmos 1624 Rocket 4.1 17:37:51 50° W 17:38:05 50° WNW 17:43:09 10° N
Cosmos 2056 Rocket 3.8 17:41:52 45° W 17:42:05 45° WNW 17:47:10 10° N
Cosmos 2221 4.1 17:40:11 10° NNE 17:44:05 36° E 17:48:02 10° SSE
Cosmos 1452 Rocket 4.2 17:40:01 13° S 17:44:44 54° ESE 17:49:55 10° NE
Cosmos 1656 Rocket 4.2 17:46:05 35° WNW 17:46:05 35° WNW 17:50:48 10° NNW
DELTA 2 R/B (1) 3.5 17:46:25 40° W 17:48:30 80° N 17:54:06 10° E
CZ-2C R/B 3.8 17:45:59 10° NE 17:49:33 43° ESE 17:53:11 10° S
Cosmos 1048 Rocket 3.9 17:46:33 10° NNW 17:51:56 74° WSW 17:57:22 10° SSE
Helios 1B rocket 3.8 17:48:34 10° NE 17:52:12 36° ESE 17:55:53 10° S
Cosmos 2369 Rocket 2.6 17:51:25 36° WSW 17:52:50 42° WNW 17:58:08 10° N
Radarsat 4.5 17:51:47 10° NNE 17:57:01 84° WNW 18:02:19 10° SSW
BREEZE-M DEB (TANK) 3.9 18:03:12 25° SW 18:05:11 37° S 18:15:18 10° ESE
Meteor 1-31 Rocket 3.2 18:01:46 10° NNE 18:05:30 62° ESE 18:09:19 10° S
SL-16 R/B 4.1 18:08:23 13° SSW 18:08:23 13° SSW 18:09:42 10° SSW
Cosmos 1603 3.7 18:04:41 10° NW 18:10:16 58° WSW 18:15:52 10° SSE
CORIOLIS 4.2 18:07:22 10° N 18:12:38 55° W 18:17:59 10° SSW
Cosmos 1110 Rocket 3.9 18:08:28 11° SSW 18:13:36 85° WNW 18:18:50 10° NNE
Lacrosse 5 rocket 3.3 18:11:31 11° S 18:13:39 17° SSE 18:16:07 10° ESE
SMAP 3.4 18:12:54 10° N 18:17:21 44° W 18:21:34 12° SSW
Centaur D-1A AC-31 3.5 18:15:44 10° NW 18:19:23 25° NNE 18:28:17 10° ENE
Cosmos 2034 Rocket 4.1 18:14:49 10° S 18:21:08 80° E 18:27:19 10° N
Cosmos 1943 3.9 18:18:25 10° WNW 18:23:22 30° WSW 18:28:23 10° S
Cosmos 1766 Rocket 3.9 18:20:33 10° S 18:24:56 67° E 18:29:17 10° NNE
Cosmos 1378 4.2 18:24:55 10° NW 18:32:30 - S 18:26:51 21° W
Meteor 1-26 Rocket 4.3 18:25:56 10° NNW 18:31:19 55° WSW 18:36:58 10° S
SKYMED 2 3.5 18:29:44 10° S 18:34:10 81° WSW 18:38:33 10° NNW
Meteor 2-16 Rocket 4.5 18:31:36 10° NNW 18:37:41 60° W 18:43:48 10° S
CZ-4B R/B 4.1 18:36:15 10° N 18:40:08 50° W 18:44:14 10° SSW
Cosmos 1818 3.8 18:39:51 10° NW 18:45:00 45° SW 18:50:10 10° SSE
IGS 5A 3.4 18:46:07 10° N 18:50:12 66° W 18:54:21 10° SSW
Cosmos 1726 2.1 18:47:31 10° S 18:50:41 64° E 18:53:48 10° NNE
H-2A R/B (2) 4.4 18:49:25 10° NNW 18:53:18 25° NE 19:04:22 10° E
USA 59 Rocket 1.7 18:50:01 10° SW 18:59:14 61° WNW 19:05:56 10° NNE
Tsikada Rocket 4.0 18:53:16 10° NNW 18:59:31 67° W 19:05:47 10° S
ADEOS Rocket 3.0 18:56:34 10° N 19:02:28 60° WNW 19:08:03 10° SSW
Cosmos 1833 Rocket 3.8 18:59:20 10° N 19:04:46 50° ENE 19:10:15 10° SE
Okean 3 Rocket 3.6 19:00:49 10° S 19:05:26 82° W 19:09:57 10° N
SL-8 R/B 4.1 19:00:49 10° WSW 19:05:34 54° NW 19:10:16 10° NE
Landsat 7 3.9 19:04:58 10° NNE 19:09:43 89° ESE 19:14:31 10° SSW
Lacrosse 4 Rocket 2.1 19:06:40 10° SW 19:10:33 36° WNW 19:14:18 10° N
